Location: Hac?musa Deresi
(39.1694°N, 32.2508°E)
Time: 10:08:37
(UTC+00:00)

ERS-1 Rocket - Pass Details

Date: 22 April 2026
Orbit: 747 x 751 km, 98.2° (Epoch: 20 May)

Event Time Altitude Azimuth Distance (km) Brightness Sun altitude
Exits shadow 17:14:13 - 124° (SE) 2,333 4.9 -7.9°
Reaches altitude 10° 17:14:25 10° 123° (ESE) 2,265 4.8 -8.0°
Maximum altitude 17:18:30 26° 67° (ENE) 1,443 4.1 -8.7°
Drops below altitude 10° 17:22:37 10° 12° (NNE) 2,278 5.6 -9.4°
Sets 17:25:13 0° 0° (N) 3,208 6.6 -9.9°
